EW9988 Weather Reports


Display with metric or nautical units.
time (UTC)temp
F
wind
direction
speed
MPH
gust
MPH
rain 1hr
in
rain 24hr
in
rain mn
in
humidity
%
barometer
mb
20260506004544 80 134 3.0 6.0 0.00 0.00 0.00 80 1005.4
20260506003046 80 147 2.0 4.0 0.00 0.00 0.00 79 1005.4
20260506001546 80 171 3.0 7.0 0.00 0.00 0.00 78 1005.1
20260506000044 81 171 2.0 6.0 0.00 0.00 0.00 77 1005.2
20260505234543 81 174 4.0 9.0 0.00 0.00 0.00 76 1005.0
20260505233042 81 159 3.0 8.0 0.00 0.00 0.00 76 1005.0
20260505231542 81 177 5.0 10.0 0.00 0.00 0.00 75 1004.9
20260505230054 81 152 6.0 11.0 0.00 0.00 0.00 75 1004.9
20260505224541 81 164 4.0 13.0 0.00 0.00 0.00 75 1004.8
20260505223052 82 152 5.0 12.0 0.00 0.00 0.00 73 1005.1
20260505221537 81 166 7.0 14.0 0.00 0.00 0.00 75 1005.0
20260505220038 81 145 7.0 13.0 0.00 0.00 0.00 75 1005.2
20260505214532 81 162 6.0 12.0 0.00 0.00 0.00 75 1005.6
20260505213048 81 183 8.0 14.0 0.00 0.00 0.00 75 1005.4
20260505211530 82 177 8.0 15.0 0.00 0.00 0.00 75 1005.7
20260505210028 81 177 8.0 16.0 0.00 0.00 0.00 75 1005.8
20260505204523 81 150 6.0 12.0 0.00 0.00 0.00 76 1006.2
20260505203030 80 169 8.0 16.0 0.00 0.00 0.00 76 1006.6
20260505201520 79 163 8.0 14.0 0.00 0.00 0.00 80 1006.6
20260505200027 79 157 7.0 15.0 0.00 0.00 0.00 78 1006.8
20260505194513 79 183 9.0 15.0 0.00 0.00 0.00 78 1007.3
20260505193012 79 169 7.0 13.0 0.00 0.00 0.00 79 1007.3
20260505191511 78 165 8.0 13.0 0.00 0.00 0.00 79 1007.4
20260505190008 78 206 8.0 14.0 0.00 0.00 0.00 81 1007.6
20260505184505 77 196 8.0 14.0 0.00 0.00 0.00 81 1007.8
20260505183004 77 231 10.0 16.0 0.00 0.00 0.00 82 1007.8
20260505181601 76 201 7.0 15.0 0.00 0.00 0.00 84 1008.1
20260505180058 76 203 9.0 13.0 0.00 0.00 0.00 84 1008.1
20260505174558 75 169 8.0 14.0 0.00 0.00 0.00 85 1008.2
20260505173053 75 181 7.0 15.0 0.00 0.00 0.00 86 1008.3
20260505171551 74 247 7.0 15.0 0.00 0.00 0.00 86 1008.4
20260505170046 73 202 7.0 14.0 0.00 0.00 0.00 88 1008.4
20260505164556 73 224 4.0 14.0 0.00 0.00 0.00 89 1008.3
20260505163038 72 162 6.0 14.0 0.00 0.00 0.00 89 1008.3
20260505161534 72 230 9.0 14.0 0.00 0.00 0.00 89 1008.5
20260505153044 71 183 9.0 17.0 0.00 0.00 0.00 90 1008.3
20260505151525 71 209 10.0 13.0 0.00 0.00 0.00 90 1008.2
20260505124513 70 164 8.0 14.0 0.00 0.00 0.00 90 1007.4
20260505123012 69 192 9.0 13.0 0.00 0.00 0.00 89 1007.2
20260505121511 69 207 9.0 15.0 0.00 0.00 0.00 89 1007.1
20260505120010 69 184 9.0 18.0 0.00 0.00 0.00 89 1007.0
20260505114510 69 191 8.0 15.0 0.00 0.00 0.00 89 1007.0
20260505113006 69 199 10.0 16.0 0.00 0.00 0.00 89 1006.9
20260505111506 69 204 9.0 16.0 0.00 0.00 0.00 89 1007.0
20260505101604 68 206 7.0 11.0 0.00 0.00 0.00 89 1007.5
20260505100100 68 198 8.0 15.0 0.00 0.00 0.00 89 1007.2
20260505094606 68 183 7.0 13.0 0.00 0.00 0.00 90 1007.5
20260505093056 68 161 6.0 12.0 0.00 0.00 0.00 89 1007.2
20260505091559 68 166 5.0 11.0 0.00 0.00 0.00 89 1007.6
20260505090058 68 160 5.0 13.0 0.00 0.00 0.00 89 1007.5
20260505084551 69 235 8.0 14.0 0.00 0.00 0.00 89 1007.7
20260505083050 69 204 9.0 19.0 0.00 0.00 0.00 89 1007.7
20260505081557 69 174 9.0 12.0 0.00 0.00 0.00 89 1007.9
20260505080047 69 204 9.0 17.0 0.00 0.00 0.00 89 1008.1
20260505074559 69 181 8.0 14.0 0.00 0.00 0.00 89 1008.2
20260505073036 69 176 7.0 14.0 0.00 0.00 0.00 89 1008.3
20260505071535 69 187 10.0 16.0 0.00 0.00 0.00 88 1008.5
20260505070032 69 195 10.0 14.0 0.00 0.00 0.00 88 1008.6
20260505064533 69 163 7.0 20.0 0.00 0.00 0.00 88 1008.8
20260505063035 69 169 8.0 15.0 0.00 0.00 0.00 88 1008.9
20260505061532 69 188 8.0 14.0 0.00 0.00 0.00 88 1009.2
20260505060028 69 162 7.0 13.0 0.00 0.00 0.00 88 1009.0
20260505054528 69 173 9.0 14.0 0.00 0.00 0.00 88 1008.9
20260505053023 69 143 8.0 16.0 0.00 0.00 0.00 87 1009.0
20260505051520 69 152 10.0 18.0 0.00 0.00 0.00 87 1008.7
20260505041517 70 176 8.0 18.0 0.00 0.00 0.00 85 1008.9
20260505040015 71 148 7.0 15.0 0.00 0.00 0.00 84 1009.0
20260505034516 71 150 7.0 16.0 0.00 0.00 0.00 83 1009.0
20260505033027 72 142 7.0 14.0 0.00 0.00 0.00 82 1008.9
20260505031514 72 168 9.0 13.0 0.00 0.00 0.00 82 1009.0
20260505030013 72 151 8.0 15.0 0.00 0.00 0.00 81 1009.1
20260505024529 72 145 6.0 11.0 0.00 0.00 0.00 81 1008.9
20260505023011 72 167 5.0 10.0 0.00 0.00 0.00 81 1008.9
20260505021526 73 130 5.0 9.0 0.00 0.00 0.00 80 1009.0
20260505020110 73 169 4.0 7.0 0.00 0.00 0.00 79 1008.8
20260505014509 74 152 4.0 10.0 0.00 0.00 0.00 77 1008.7
20260505013009 74 176 6.0 11.0 0.00 0.00 0.00 76 1008.7
20260505011511 75 186 6.0 14.0 0.00 0.00 0.00 74 1008.6
20260505010007 76 142 7.0 13.0 0.00 0.00 0.00 71 1008.5